Miscellaneous Local Product
Issued by NWS Hastings, NE

Home | Current Version | Previous Version | Text Only | Print | Product List | Glossary Off
Versions: 1 2 3 4 5 6 7 8 9 10 11 12 13 14 15 16 17 18 19 20 21 22 23 24 25 26 27 28 29 30 31 32 33 34 35 36 37 38 39 40 41 42 43 44 45 46 47 48 49 50

000
AXUS43 KGID 260502
MISGRI

GID CWA HOURLY WEATHER ROUNDUP
NATIONAL WEATHER SERVICE HASTINGS NE
1200 AM CDT SUN JUL 26 2015

NOTE: "FAIR" INDICATES FEW OR NO CLOUDS BELOW 12,000 FEET WITH NO
SIGNIFICANT WEATHER AND/OR OBSTRUCTIONS TO VISIBILITY.

...SOUTH CENTRAL NEBRASKA...

CITY           SKY/WX    TMP DP  RH WIND       PRES   REMARKS
GRAND ISLAND   CLEAR     71  69  93 CALM      29.91R
HASTINGS       CLEAR     72  70  93 SE3       29.90S
KEARNEY        CLEAR     72  68  88 CALM      29.91S
ORD            CLEAR     72  69  90 S3        29.89S
YORK           CLEAR     72  72 100 SE5       29.90R
AURORA         PTCLDY    71  71 100 SE3       29.91R
LEXINGTON      CLEAR     73  71  91 CALM      29.92F
HOLDREGE       CLEAR     70  68  93 CALM      29.92F
HEBRON         MOCLDY    73  70  92 SE3       29.88F

...NEBRASKA PANHANDLE...

CITY           SKY/WX    TMP DP  RH WIND       PRES   REMARKS
CHADRON        CLEAR     65  59  81 NE5       29.95R
ALLIANCE       CLEAR     61  56  83 W5        29.98S
SCOTTSBLUFF    CLEAR     68  58  70 NE8       29.98F
SIDNEY         PTCLDY    68  63  84 SW8       30.03F

...WESTERN AND NORTH CENTRAL NEBRASKA...

CITY           SKY/WX    TMP DP  RH WIND       PRES   REMARKS
VALENTINE      CLEAR     76  67  73 NE12      29.92R
AINSWORTH      CLEAR     75  70  84 N8        29.92R
ONEILL         PTCLDY    74  71  90 N7        29.92R
BROKEN BOW     CLEAR     73  70  90 S5        29.92S
IMPERIAL       CLEAR     69  66  90 SE7       29.96F
NORTH PLATTE   CLEAR     72  68  87 SE5       29.93F
MCCOOK         CLEAR     72  68  87 E6        29.93F

...EASTERN NEBRASKA...

CITY           SKY/WX    TMP DP  RH WIND       PRES   REMARKS
NORFOLK        CLEAR     73  71  93 SE6       29.89S
SO SIOUX CITY  MOCLDY    73  69  87 SE6       29.89S
TEKAMAH        PTCLDY    71  68  90 SE3       29.89R
COLUMBUS       CLEAR     73  66  78 SE5       29.90R
ALBION         CLEAR     71  68  89 S6        29.89S
OMAHA EPPLEY   MOCLDY    76  72  87 E3        29.90R
OFFUTT AFB     PTCLDY    72  71  97 E7        29.89R
MILLARD        PTCLDY    75  71  88 SE6       29.89R
LINCOLN        MOCLDY    74  72  93 S5        29.90R
BEATRICE       CLOUDY    73  73  98 SE5       29.88F
FALLS CITY     MOCLDY    73  71  93 E6        29.88R

...NORTHERN KANSAS...

CITY           SKY/WX    TMP DP  RH WIND       PRES   REMARKS
GOODLAND       CLEAR     72  70  93 E7        30.00R
HILL CITY      MOCLDY    74  70  87 S6        29.92S
NORTON         CLEAR     72  66  83 E3        29.91F
PHILLIPSBURG   RAIN      75  73  94 CALM      29.89F
SMITH CENTER   CLEAR     70  66  88 N5        29.89F
HAYS           CLOUDY    75  61  60 S6        29.89F
RUSSELL        CLOUDY    76  67  73 S12       29.87F
CONCORDIA      CLOUDY    73  73 100 SE7       29.87F FOG
SALINA         CLOUDY    85  72  65 SE7       29.86S HX  91
TOPEKA         CLOUDY    78  74  87 SE3       29.89R



USA.gov is the U.S. government's official web portal to all federal, state and local government web resources and services.